G0AMO Weather Reports


Display with metric or nautical units.
time (UTC)temp
F
wind
direction
speed
MPH
gust
MPH
rain 1hr
in
rain 24hr
in
rain mn
in
humidity
%
barometer
mb
20260505100006 57 34 7.0 10.0 0.00 0.00 0.00 72 1014.2
20260505095504 56 38 7.0 14.0 0.00 0.00 0.00 74 1014.6
20260505095004 56 29 7.0 16.0 0.00 0.00 0.00 74 1014.6
20260505094504 56 19 6.0 16.0 0.00 0.00 0.00 75 1014.6
20260505094004 55 33 5.0 18.0 0.00 0.00 0.00 75 1014.6
20260505093504 55 3 8.0 18.0 0.00 0.00 0.00 76 1014.6
20260505092503 55 3 10.0 18.0 0.00 0.00 0.00 77 1014.6
20260505091003 54 50 7.0 18.0 0.00 0.00 0.00 79 1014.6
20260505090504 53 9 6.0 18.0 0.00 0.00 0.00 79 1014.6
20260505090005 54 28 10.0 18.0 0.00 0.00 0.00 79 1014.6
20260505085004 54 36 9.0 16.0 0.00 0.00 0.00 80 1014.6
20260505084504 53 4 8.0 14.0 0.00 0.00 0.00 81 1014.6
20260505083504 52 9 7.0 13.0 0.00 0.00 0.00 84 1013.9
20260505083005 52 357 7.0 14.0 0.00 0.00 0.00 86 1014.2
20260505082504 52 28 8.0 14.0 0.00 0.00 0.00 87 1014.9
20260505082005 51 331 5.0 12.0 0.00 0.00 0.00 87 1014.9
20260505081504 51 62 6.0 16.0 0.00 0.00 0.00 88 1014.6
20260505081004 51 332 10.0 16.0 0.00 0.00 0.00 88 1014.9
20260505080504 51 36 5.0 12.0 0.00 0.00 0.00 88 1014.9
20260505080005 51 22 2.0 14.0 0.00 0.00 0.00 88 1013.9
20260505075504 51 19 9.0 14.0 0.00 0.00 0.00 88 1014.9
20260505075005 52 328 10.0 12.0 0.00 0.00 0.00 87 1014.6
20260505074505 52 2 7.0 18.0 0.00 0.00 0.00 87 1014.2
20260505074004 51 35 9.0 21.0 0.00 0.00 0.00 87 1014.6
20260505073504 51 8 16.0 21.0 0.00 0.00 0.00 88 1014.9
20260505073004 51 63 12.0 16.0 0.00 0.00 0.00 88 1014.6
20260505072504 51 14 8.0 21.0 0.00 0.00 0.00 88 1014.9
20260505072004 51 56 9.0 21.0 0.00 0.00 0.00 88 1014.6
20260505071504 51 69 3.0 12.0 0.00 0.00 0.00 89 1014.2
20260505071003 51 11 6.0 16.0 0.00 0.00 0.00 89 1014.9
20260505070504 51 347 6.0 16.0 0.00 0.00 0.00 90 1014.9
20260505070005 51 37 8.0 12.0 0.00 0.00 0.00 91 1015.2
20260505065505 50 29 2.0 12.0 0.00 0.00 0.00 92 1014.9
20260505065004 50 329 6.0 12.0 0.00 0.00 0.00 92 1014.9
20260505063503 49 334 6.0 14.0 0.00 0.00 0.00 93 1014.6
20260505063004 49 343 6.0 12.0 0.00 0.00 0.00 94 1014.9
20260505062504 48 24 6.0 7.0 0.00 0.00 0.00 95 1014.9
20260505062004 48 23 0.0 7.0 0.00 0.00 0.00 95 1014.6
20260505061504 47 33 3.0 7.0 0.00 0.00 0.00 95 1014.9
20260505061004 47 15 2.0 3.0 0.00 0.00 0.00 95 1013.5
20260505060504 47 353 2.0 3.0 0.00 0.00 0.00 95 1013.9
20260505060004 47 38 2.0 5.0 0.00 0.00 0.00 96 1013.5
20260505055503 47 16 2.0 7.0 0.00 0.00 0.00 96 1013.5
20260505055004 47 18 6.0 7.0 0.00 0.00 0.00 96 1013.9
20260505054504 47 46 2.0 7.0 0.00 0.00 0.00 96 1013.9
20260505054005 47 35 3.0 7.0 0.00 0.00 0.00 96 1013.9
20260505053503 47 39 1.0 12.0 0.00 0.00 0.00 96 1014.9
20260505052504 46 26 5.0 14.0 0.00 0.00 0.00 96 1014.9
20260505052004 46 21 6.0 14.0 0.00 0.00 0.00 96 1014.9
20260505051505 46 18 3.0 9.0 0.00 0.00 0.00 96 1014.6
20260505051005 46 14 2.0 9.0 0.00 0.00 0.00 96 1014.9
20260505050505 46 22 5.0 9.0 0.00 0.00 0.00 96 1014.9
20260505041504 46 356 1.0 7.0 0.00 0.00 0.00 95 1014.5
20260505041004 46 353 2.0 5.0 0.00 0.00 0.00 95 1014.3
20260505040503 47 4 2.0 5.0 0.00 0.00 0.00 95 1015.2
20260505040005 47 357 1.0 5.0 0.00 0.00 0.00 95 1015.2
20260505035505 47 26 0.0 5.0 0.00 0.00 0.00 95 1015.2
20260505035005 47 19 1.0 5.0 0.00 0.00 0.00 95 1014.9
20260505034504 47 28 1.0 5.0 0.00 0.00 0.00 95 1015.2
20260505033503 47 29 0.0 0.0 0.00 0.00 0.00 95 1014.2
20260505033004 46 29 0.0 0.0 0.00 0.00 0.00 95 1014.2
20260505032505 47 29 0.0 0.0 0.00 0.00 0.00 95 1014.9
20260505032004 47 29 0.0 0.0 0.00 0.00 0.00 94 1014.2
20260505031504 48 29 0.0 0.0 0.00 0.00 0.00 94 1013.9
20260505031004 48 29 0.0 0.0 0.00 0.00 0.00 94 1013.9
20260505030503 47 81 0.0 0.0 0.00 0.00 0.00 94 1014.2
20260505030004 47 86 0.0 0.0 0.00 0.00 0.00 94 1014.9
20260505025504 47 86 0.0 0.0 0.00 0.00 0.00 94 1013.9
20260505024504 48 86 0.0 0.0 0.00 0.00 0.00 93 1014.9
20260505022504 49 35 2.0 5.0 0.00 0.00 0.00 93 1013.9
20260505021504 49 1 1.0 2.0 0.00 0.00 0.00 93 1014.2
20260505021005 49 28 2.0 3.0 0.00 0.00 0.00 92 1013.9
20260505020504 50 306 3.0 9.0 0.00 0.00 0.00 92 1013.9
20260505020005 50 343 7.0 9.0 0.00 0.00 0.00 92 1014.9
20260505015504 50 355 3.0 7.0 0.00 0.00 0.00 92 1014.9
20260505015003 50 355 5.0 9.0 0.00 0.00 0.00 92 1015.2
20260505014505 50 22 6.0 9.0 0.00 0.00 0.00 91 1014.9
20260505013505 51 20 0.0 5.0 0.00 0.00 0.00 91 1015.2
20260505012504 51 129 0.0 3.0 0.00 0.00 0.00 91 1015.2
20260505012005 51 60 2.0 3.0 0.00 0.00 0.00 90 1014.2
20260505011504 52 11 3.0 5.0 0.00 0.00 0.00 90 1014.6
20260505011004 52 30 3.0 8.0 0.00 0.00 0.00 90 1014.6
20260505010504 52 55 6.0 8.0 0.00 0.00 0.00 89 1014.2
20260505010004 52 32 3.0 3.0 0.00 0.00 0.00 89 1014.6
20260505005004 52 24 3.0 7.0 0.00 0.00 0.00 89 1015.6
20260505004504 52 20 2.0 9.0 0.00 0.00 0.00 89 1015.6
20260505004004 52 52 2.0 9.0 0.00 0.00 0.00 89 1015.6
20260505003505 52 36 3.0 12.0 0.00 0.00 0.00 89 1015.6
20260505003004 53 62 8.0 12.0 0.00 0.00 0.00 89 1015.6
20260505002504 53 12 2.0 9.0 0.00 0.00 0.00 89 1015.6
20260505001504 53 39 5.0 7.0 0.00 0.00 0.00 89 1015.6
20260505001004 53 35 1.0 5.0 0.00 0.00 0.00 89 1014.6
20260505000504 53 31 3.0 5.0 0.00 0.00 0.00 89 1014.6
20260504235504 53 33 3.0 3.0 0.00 0.00 0.00 89 1014.9
20260504235003 53 63 1.0 3.0 0.00 0.00 0.00 89 1014.9
20260504234004 53 35 5.0 5.0 0.00 0.00 0.00 88 1014.9
20260504233503 53 35 3.0 7.0 0.00 0.00 0.00 88 1014.9
20260504233005 53 45 5.0 7.0 0.00 0.00 0.00 88 1015.9
20260504232504 53 11 1.0 7.0 0.00 0.00 0.00 88 1015.6
20260504232004 54 36 3.0 7.0 0.00 0.00 0.00 88 1015.6
20260504231505 54 65 3.0 9.0 0.00 0.00 0.00 87 1015.9
20260504231004 54 25 6.0 9.0 0.00 0.00 0.00 87 1015.6
20260504230504 54 46 6.0 9.0 0.00 0.00 0.00 87 1015.9
20260504225504 54 55 1.0 9.0 0.00 0.00 0.00 87 1015.6
20260504225003 54 44 5.0 9.0 0.00 0.00 0.00 86 1015.9
20260504223505 54 314 3.0 12.0 0.00 0.00 0.00 86 1015.6
20260504223003 54 36 2.0 12.0 0.00 0.00 0.00 86 1015.9
20260504222505 54 23 3.0 12.0 0.00 0.00 0.00 86 1014.9
20260504222004 54 29 8.0 12.0 0.00 0.00 0.00 86 1015.9
20260504220504 54 48 3.0 7.0 0.00 0.00 0.00 87 1014.9
20260504220004 54 8 2.0 9.0 0.00 0.00 0.00 87 1016.3
20260504215504 54 28 3.0 12.0 0.00 0.00 0.00 87 1015.6
20260504215003 54 21 6.0 12.0 0.00 0.00 0.00 87 1015.9
20260504214504 54 48 6.0 12.0 0.00 0.00 0.00 87 1015.6
20260504214004 54 59 5.0 12.0 0.00 0.00 0.00 87 1015.9
20260504213504 54 58 7.0 12.0 0.00 0.00 0.00 87 1015.9
20260504213005 54 36 2.0 12.0 0.00 0.00 0.00 87 1016.3
20260504212504 54 64 8.0 12.0 0.00 0.00 0.00 87 1015.9
20260504212004 54 27 3.0 5.0 0.00 0.00 0.00 87 1015.2
20260504211004 54 32 5.0 9.0 0.00 0.00 0.00 87 1015.9
20260504210504 54 35 2.0 7.0 0.00 0.00 0.00 87 1015.9
20260504205505 54 23 3.0 7.0 0.00 0.00 0.00 87 1015.2
20260504205005 54 103 2.0 7.0 0.00 0.00 0.00 87 1015.2
20260504204504 54 37 2.0 3.0 0.00 0.00 0.00 87 1015.2
20260504204005 54 36 1.0 7.0 0.00 0.00 0.00 87 1015.8
20260504203505 55 24 4.0 7.0 0.00 0.00 0.00 87 1015.9
20260504203004 55 25 5.0 7.0 0.00 0.00 0.00 87 1015.9
20260504202504 55 20 3.0 9.0 0.00 0.00 0.00 87 1015.7
20260504202004 55 25 2.0 9.0 0.00 0.00 0.00 87 1015.8
20260504201504 55 25 2.0 7.0 0.00 0.00 0.00 87 1015.5
20260504201004 55 25 2.0 5.0 0.00 0.00 0.00 87 1015.6
20260504200505 55 20 1.0 5.0 0.00 0.00 0.00 87 1015.9
20260504200004 55 30 3.0 5.0 0.00 0.00 0.00 87 1015.9
20260504195505 55 26 2.0 5.0 0.00 0.00 0.00 87 1015.5
20260504195003 55 346 1.0 2.0 0.00 0.00 0.00 87 1015.0
20260504194504 55 355 0.0 2.0 0.00 0.00 0.00 87 1015.1
20260504193504 55 32 5.0 9.0 0.00 0.00 0.00 87 1015.6
20260504193005 55 27 4.0 9.0 0.00 0.00 0.00 87 1015.5
20260504192504 55 25 2.0 9.0 0.00 0.00 0.00 86 1015.2
20260504192004 56 36 4.0 7.0 0.00 0.00 0.00 86 1015.2
20260504191504 56 43 4.0 7.0 0.00 0.00 0.00 85 1014.6
20260504191003 56 27 5.0 10.0 0.00 0.00 0.00 85 1015.2
20260504190504 56 23 6.0 10.0 0.00 0.00 0.00 85 1014.9
20260504190005 56 42 5.0 5.0 0.00 0.00 0.00 85 1014.9
20260504185503 56 28 3.0 7.0 0.00 0.00 0.00 84 1014.9
20260504185004 56 95 5.0 9.0 0.00 0.00 0.00 84 1015.2
20260504184004 56 35 3.0 9.0 0.00 0.00 0.00 84 1015.2
20260504183504 56 117 5.0 9.0 0.00 0.00 0.00 84 1015.2
20260504183004 57 64 3.0 12.0 0.00 0.00 0.00 84 1015.2
20260504182504 57 70 4.0 12.0 0.00 0.00 0.00 84 1014.9
20260504182004 57 30 2.0 3.0 0.00 0.00 0.00 84 1014.6
20260504181503 56 21 3.0 5.0 0.00 0.00 0.00 84 1014.6
20260504181004 57 34 5.0 12.0 0.00 0.00 0.00 84 1014.6
20260504180504 57 4 7.0 12.0 0.00 0.00 0.00 84 1014.9
20260504180005 57 58 1.0 8.0 0.00 0.00 0.00 84 1014.6
20260504175003 57 84 6.0 12.0 0.00 0.00 0.00 84 1014.2
20260504174004 57 22 10.0 16.0 0.00 0.00 0.00 84 1015.2
20260504173505 56 24 3.0 9.0 0.00 0.00 0.00 85 1015.2
20260504173005 56 58 7.0 12.0 0.00 0.00 0.00 85 1014.9
20260504172504 56 46 10.0 12.0 0.00 0.00 0.00 84 1014.9
20260504172004 56 44 7.0 14.0 0.00 0.00 0.00 84 1014.2
20260504171004 57 63 8.0 16.0 0.00 0.00 0.00 83 1014.9
20260504170503 57 73 5.0 7.0 0.00 0.00 0.00 83 1014.9
20260504151004 60 36 3.0 14.0 0.00 0.00 0.00 79 1014.6
20260504150505 60 67 6.0 21.0 0.00 0.00 0.00 78 1014.9
20260504141003 62 69 3.0 9.0 0.00 0.00 0.00 73 1014.6
20260504140505 62 36 3.0 5.0 0.00 0.00 0.00 73 1014.2
20260504130505 62 68 5.0 9.0 0.00 0.00 0.00 73 1014.6
20260504110504 57 29 9.0 12.0 0.00 0.00 0.00 88 1015.6
20260504100504 58 41 1.0 5.0 0.00 0.00 0.00 86 1015.2